カタログに戻る

COSMOS 1275 DEB

LostUNKNOWN
NORAD 39952·DEBRIS·🇷🇺 Russia

打ち上げ Jun 4, 1981 から Plesetsk Cosmodrome

Loading…

次のパス (今後24時間)

TLE

古いSource: Space-Track

元期: Mar 26, 2018, 13:39 UTC

1 39952U 81053NN  18085.56910403  .00000083  00000-0  50889-3 0  9999
2 39952  66.0295 145.0932 0676029 336.1493  20.9477 12.34472763665770

AllMySatでCOSMOS 1275 DEBをリアルタイム追跡

Download on the App Store